• In Belarus
  • List of Countries
  • For 7 days
  • Water Temperature
  • Satellite Maps
  • Weather Map
  • Weather Widgets
  • user-avatar
    Login

    Hourly Weather Chhabra

    Today, 12 December, Wednesday

    Time Temperature Precipitation Wind Pressure Humidity
    00:00 +18°C° 0 mm 3 mps 732 mmHg 40%
    01:00 +18°C° 0 mm 3 mps 732 mmHg 40%
    02:00 +18°C° 0 mm 3 mps 732 mmHg 41%
    03:00 +18°C° 0 mm 3 mps 732 mmHg 41%
    04:00 +17°C° 0 mm 2 mps 732 mmHg 42%
    05:00 +17°C° 0 mm 2 mps 732 mmHg 42%
    06:00 +18°C° 0 mm 2 mps 732 mmHg 42%
    07:00 +18°C° 0 mm 2 mps 733 mmHg 41%
    08:00 +20°C° 0 mm 1 mps 733 mmHg 40%
    09:00 +21°C° 0 mm 1 mps 734 mmHg 38%
    10:00 +22°C° 0 mm 1 mps 734 mmHg 35%
    11:00 +24°C° 0 mm 2 mps 734 mmHg 33%
    12:00 +24°C° 0 mm 2 mps 733 mmHg 34%
    13:00 +24°C° 0 mm 3 mps 733 mmHg 35%
    14:00 +24°C° 0 mm 3 mps 732 mmHg 36%
    15:00 +22°C° 0 mm 3 mps 732 mmHg 38%
    16:00 +21°C° 0 mm 3 mps 732 mmHg 41%
    17:00 +20°C° 0 mm 2 mps 732 mmHg 43%
    18:00 +20°C° 0 mm 2 mps 733 mmHg 45%
    19:00 +20°C° 0 mm 2 mps 733 mmHg 46%
    20:00 +20°C° 0 mm 2 mps 734 mmHg 48%
    21:00 +19°C° 0 mm 2 mps 734 mmHg 49%
    22:00 +19°C° 0 mm 2 mps 734 mmHg 51%
    23:00 +19°C° 0 mm 2 mps 734 mmHg 53%

    Tomorrow, 13 December, Thursday

    Time Temperature Precipitation Wind Pressure Humidity
    00:00 +19°C° 0 mm 2 mps 734 mmHg 53%
    01:00 +19°C° 0 mm 2 mps 734 mmHg 54%
    02:00 +18°C° 0 mm 2 mps 734 mmHg 55%
    03:00 +19°C° 0 mm 1 mps 734 mmHg 56%
    04:00 +19°C° 0 mm 1 mps 734 mmHg 57%
    05:00 +18°C° 0 mm 1 mps 733 mmHg 58%
    06:00 +19°C° 0 mm 1 mps 734 mmHg 56%
    07:00 +20°C° 0 mm 1 mps 735 mmHg 55%
    08:00 +20°C° 0 mm 1 mps 735 mmHg 53%
    09:00 +22°C° 0 mm 1 mps 735 mmHg 48%
    10:00 +23°C° 0 mm 1 mps 736 mmHg 44%
    11:00 +25°C° 0 mm 1 mps 736 mmHg 39%
    12:00 +25°C° 0 mm 2 mps 735 mmHg 37%
    13:00 +26°C° 0 mm 2 mps 734 mmHg 34%
    14:00 +26°C° 0 mm 2 mps 734 mmHg 32%
    15:00 +25°C° 0 mm 2 mps 734 mmHg 34%
    16:00 +24°C° 0 mm 2 mps 734 mmHg 36%
    17:00 +23°C° 0 mm 2 mps 733 mmHg 38%
    18:00 +21°C° 0 mm 3 mps 734 mmHg 40%
    19:00 +20°C° 0 mm 3 mps 735 mmHg 42%
    20:00 +19°C° 0 mm 3 mps 735 mmHg 44%
    21:00 +19°C° 0 mm 3 mps 735 mmHg 46%
    22:00 +18°C° 0 mm 3 mps 735 mmHg 49%
    23:00 +18°C° 0 mm 3 mps 735 mmHg 52%

    Day after tomorrow, 14 December, Friday

    Time Temperature Precipitation Wind Pressure Humidity
    00:00 +17°C° 0 mm 3 mps 735 mmHg 54%
    01:00 +17°C° 0 mm 3 mps 735 mmHg 56%
    02:00 +16°C° 0 mm 3 mps 735 mmHg 58%
    03:00 +16°C° 0 mm 3 mps 735 mmHg 59%
    04:00 +16°C° 0 mm 3 mps 735 mmHg 61%
    05:00 +15°C° 0 mm 2 mps 735 mmHg 62%
    06:00 +16°C° 0 mm 3 mps 736 mmHg 59%
    07:00 +17°C° 0 mm 3 mps 736 mmHg 57%
    08:00 +18°C° 0 mm 3 mps 737 mmHg 55%
    09:00 +19°C° 0 mm 3 mps 737 mmHg 48%
    10:00 +21°C° 0 mm 3 mps 737 mmHg 41%
    11:00 +24°C° 0 mm 3 mps 737 mmHg 34%
    12:00 +25°C° 0 mm 2 mps 737 mmHg 31%
    13:00 +25°C° 0 mm 2 mps 736 mmHg 29%
    14:00 +26°C° 0 mm 2 mps 735 mmHg 27%
    15:00 +25°C° 0 mm 2 mps 735 mmHg 29%
    16:00 +23°C° 0 mm 2 mps 735 mmHg 31%
    17:00 +21°C° 0 mm 2 mps 735 mmHg 33%
    18:00 +20°C° 0 mm 3 mps 736 mmHg 35%
    19:00 +19°C° 0 mm 3 mps 736 mmHg 37%
    20:00 +18°C° 0 mm 3 mps 736 mmHg 39%
    21:00 +18°C° 0 mm 3 mps 736 mmHg 40%
    22:00 +17°C° 0 mm 3 mps 736 mmHg 41%
    23:00 +15°C° 0 mm 4 mps 736 mmHg 43%

    15 December, Saturday

    Time Temperature Precipitation Wind Pressure Humidity
    00:00 +16°C° 0 mm 3 mps 736 mmHg 43%
    01:00 +14°C° 0 mm 3 mps 736 mmHg 44%
    02:00 +14°C° 0 mm 3 mps 735 mmHg 45%
    03:00 +13°C° 0 mm 3 mps 735 mmHg 46%
    04:00 +13°C° 0 mm 3 mps 736 mmHg 47%
    05:00 +14°C° 0 mm 2 mps 736 mmHg 48%
    06:00 +14°C° 0 mm 3 mps 736 mmHg 46%
    07:00 +14°C° 0 mm 3 mps 737 mmHg 45%
    08:00 +16°C° 0 mm 3 mps 737 mmHg 43%
    09:00 +18°C° 0 mm 3 mps 737 mmHg 37%
    10:00 +20°C° 0 mm 3 mps 737 mmHg 31%
    11:00 +24°C° 0 mm 3 mps 737 mmHg 25%
    12:00 +24°C° 0 mm 3 mps 736 mmHg 23%
    13:00 +25°C° 0 mm 3 mps 736 mmHg 21%
    14:00 +26°C° 0 mm 2 mps 735 mmHg 19%
    15:00 +24°C° 0 mm 2 mps 735 mmHg 22%
    16:00 +22°C° 0 mm 3 mps 735 mmHg 25%
    17:00 +21°C° 0 mm 3 mps 735 mmHg 27%
    18:00 +20°C° 0 mm 3 mps 735 mmHg 29%
    19:00 +18°C° 0 mm 3 mps 736 mmHg 31%
    20:00 +17°C° 0 mm 3 mps 736 mmHg 33%
    21:00 +17°C° 0 mm 3 mps 736 mmHg 34%
    22:00 +16°C° 0 mm 3 mps 736 mmHg 35%
    23:00 +14°C° 0 mm 3 mps 736 mmHg 36%

    16 December, Sunday

    Time Temperature Precipitation Wind Pressure Humidity
    00:00 +14°C° 0 mm 3 mps 736 mmHg 37%
    01:00 +13°C° 0 mm 3 mps 736 mmHg 39%
    02:00 +13°C° 0 mm 3 mps 735 mmHg 40%
    03:00 +13°C° 0 mm 3 mps 735 mmHg 41%
    04:00 +13°C° 0 mm 3 mps 736 mmHg 42%
    05:00 +12°C° 0 mm 3 mps 736 mmHg 42%
    06:00 +13°C° 0 mm 3 mps 736 mmHg 41%
    07:00 +14°C° 0 mm 3 mps 737 mmHg 40%
    08:00 +14°C° 0 mm 3 mps 737 mmHg 39%
    09:00 +18°C° 0 mm 3 mps 737 mmHg 34%
    10:00 +20°C° 0 mm 3 mps 737 mmHg 28%
    11:00 +22°C° 0 mm 3 mps 737 mmHg 23%
    12:00 +24°C° 0 mm 3 mps 736 mmHg 22%
    13:00 +25°C° 0 mm 3 mps 735 mmHg 20%
    14:00 +26°C° 0 mm 2 mps 735 mmHg 18%
    15:00 +24°C° 0 mm 2 mps 734 mmHg 21%
    16:00 +23°C° 0 mm 2 mps 734 mmHg 23%
    17:00 +21°C° 0 mm 2 mps 734 mmHg 25%
    18:00 +19°C° 0 mm 2 mps 735 mmHg 26%
    19:00 +18°C° 0 mm 2 mps 735 mmHg 27%
    20:00 +17°C° 0 mm 2 mps 736 mmHg 28%
    21:00 +17°C° 0 mm 2 mps 736 mmHg 29%
    22:00 +16°C° 0 mm 2 mps 735 mmHg 30%
    23:00 +15°C° 0 mm 2 mps 735 mmHg 31%

    17 December, Monday

    Time Temperature Precipitation Wind Pressure Humidity
    00:00 +15°C° 0 mm 2 mps 735 mmHg 32%
    01:00 +15°C° 0 mm 2 mps 735 mmHg 34%
    02:00 +14°C° 0 mm 2 mps 735 mmHg 36%
    03:00 +14°C° 0 mm 2 mps 735 mmHg 37%
    04:00 +14°C° 0 mm 2 mps 735 mmHg 38%
    05:00 +13°C° 0 mm 2 mps 735 mmHg 40%
    06:00 +14°C° 0 mm 2 mps 735 mmHg 40%
    07:00 +15°C° 0 mm 2 mps 736 mmHg 39%
    08:00 +16°C° 0 mm 2 mps 737 mmHg 39%
    09:00 +18°C° 0 mm 2 mps 737 mmHg 35%
    10:00 +20°C° 0 mm 2 mps 737 mmHg 31%
    11:00 +23°C° 0 mm 2 mps 736 mmHg 27%
    12:00 +24°C° 0 mm 2 mps 736 mmHg 26%
    13:00 +25°C° 0 mm 2 mps 735 mmHg 24%
    14:00 +26°C° 0 mm 2 mps 734 mmHg 22%
    15:00 +24°C° 0 mm 2 mps 734 mmHg 25%
    16:00 +23°C° 0 mm 2 mps 734 mmHg 27%
    17:00 +21°C° 0 mm 2 mps 734 mmHg 29%
    18:00 +20°C° 0 mm 2 mps 734 mmHg 31%
    19:00 +19°C° 0 mm 2 mps 735 mmHg 34%
    20:00 +18°C° 0 mm 2 mps 735 mmHg 36%
    21:00 +17°C° 0 mm 2 mps 735 mmHg 40%
    22:00 +16°C° 0 mm 2 mps 735 mmHg 44%
    23:00 +16°C° 0 mm 1 mps 735 mmHg 48%
    Show more